GW0544 Weather Reports


Display with metric or nautical units.
time (UTC)temp
F
wind
direction
speed
MPH
gust
MPH
rain 1hr
in
rain 24hr
in
rain mn
in
humidity
%
barometer
mb
20260904004602 80 244 5.0 10.0 0.00 0.00 0.00 39 1014.5
20260904003103 81 264 5.0 10.0 0.00 0.00 0.00 39 1014.5
20260904001610 81 264 4.0 11.0 0.00 0.00 0.00 39 1014.4
20260904000105 82 251 6.0 12.0 0.00 0.00 0.00 38 1014.4
20260903234612 82 294 6.0 12.0 0.00 0.00 0.00 37 1014.4
20260903233101 82 247 6.0 12.0 0.00 0.00 0.00 37 1014.5
20260903231609 83 288 3.0 11.0 0.00 0.00 0.00 38 1014.5
20260903230108 83 263 6.0 13.0 0.00 0.00 0.00 38 1014.5
20260903224603 83 205 6.0 12.0 0.00 0.00 0.00 37 1014.7
20260903223112 83 257 8.0 16.0 0.00 0.00 0.00 35 1014.9
20260903221559 84 259 6.0 13.0 0.00 0.00 0.00 34 1015.1
20260903220101 85 298 5.0 12.0 0.00 0.00 0.00 31 1015.3
20260903214557 85 330 8.0 14.0 0.00 0.00 0.00 29 1015.3
20260903213111 85 275 5.0 15.0 0.00 0.00 0.00 26 1015.3
20260903211601 85 260 6.0 11.0 0.00 0.00 0.00 24 1015.3
20260903210104 85 267 6.0 14.0 0.00 0.00 0.00 21 1015.4
20260903204559 84 239 5.0 13.0 0.00 0.00 0.00 21 1015.5
20260903203100 83 271 5.0 13.0 0.00 0.00 0.00 22 1015.4
20260903201601 83 262 7.0 15.0 0.00 0.00 0.00 21 1015.6
20260903194602 83 203 6.0 12.0 0.00 0.00 0.00 20 1015.9
20260903193059 83 227 7.0 12.0 0.00 0.00 0.00 20 1016.2
20260903191558 83 242 4.0 11.0 0.00 0.00 0.00 21 1016.3
20260903190110 83 226 5.0 10.0 0.00 0.00 0.00 20 1016.3
20260903184608 82 221 6.0 14.0 0.00 0.00 0.00 23 1016.7
20260903183107 83 258 4.0 9.0 0.00 0.00 0.00 19 1016.8
20260903181603 82 262 6.0 18.0 0.00 0.00 0.00 18 1017.1
20260903180112 83 246 4.0 9.0 0.00 0.00 0.00 20 1017.1
20260903174602 83 240 4.0 9.0 0.00 0.00 0.00 17 1017.3
20260903173106 82 229 4.0 11.0 0.00 0.00 0.00 19 1017.2
20260903171604 82 297 4.0 9.0 0.00 0.00 0.00 16 1017.2
20260903170109 83 0 0.0 5.0 0.00 0.00 0.00 18 1017.2
20260903164607 82 213 2.0 6.0 0.00 0.00 0.00 22 1017.3
20260903163136 79 0 0.0 4.0 0.00 0.00 0.00 21 1017.2
20260903161603 76 204 2.0 4.0 0.00 0.00 0.00 23 1017.3
20260903160108 74 0 0.0 2.0 0.00 0.00 0.00 19 1017.2
20260903154610 70 0 0.0 0.0 0.00 0.00 0.00 29 1017.4
20260903153109 65 0 0.0 1.0 0.00 0.00 0.00 41 1017.5
20260903151604 60 0 0.0 0.0 0.00 0.00 0.00 46 1017.7
20260903150105 54 0 0.0 3.0 0.00 0.00 0.00 50 1017.7
20260903144609 50 77 2.0 4.0 0.00 0.00 0.00 58 1017.7
20260903143105 45 71 3.0 5.0 0.00 0.00 0.00 69 1017.6
20260903141607 41 69 1.0 4.0 0.00 0.00 0.00 77 1017.6
20260903140107 39 0 0.0 3.0 0.00 0.00 0.00 75 1017.5
20260903134638 38 79 0.0 3.0 0.00 0.00 0.00 73 1017.3
20260903133104 38 0 0.0 2.0 0.00 0.00 0.00 74 1017.0
20260903131600 37 0 0.0 2.0 0.00 0.00 0.00 72 1017.0
20260903130107 37 0 0.0 1.0 0.00 0.00 0.00 75 1017.0
20260903124610 36 0 0.0 1.0 0.00 0.00 0.00 73 1017.0
20260903123103 36 0 0.0 0.0 0.00 0.00 0.00 73 1016.8
20260903121602 37 0 0.0 0.0 0.00 0.00 0.00 71 1016.6
20260903120122 38 0 0.0 0.0 0.00 0.00 0.00 73 1016.6
20260903114606 38 0 0.0 1.0 0.00 0.00 0.00 74 1016.6
20260903113102 38 0 0.0 0.0 0.00 0.00 0.00 73 1016.6
20260903111558 38 0 0.0 3.0 0.00 0.00 0.00 74 1016.7
20260903110105 39 0 0.0 1.0 0.00 0.00 0.00 74 1016.9
20260903104559 39 0 0.0 1.0 0.00 0.00 0.00 73 1017.0
20260903103102 41 0 0.0 2.0 0.00 0.00 0.00 76 1017.0
20260903101604 40 79 2.0 5.0 0.00 0.00 0.00 79 1017.2
20260903100106 41 0 0.0 0.0 0.00 0.00 0.00 77 1017.2
20260903094602 42 0 0.0 3.0 0.00 0.00 0.00 78 1017.3
20260903093100 42 89 2.0 4.0 0.00 0.00 0.00 77 1017.4
20260903091605 43 0 0.0 0.0 0.00 0.00 0.00 75 1017.4
20260903084607 44 77 0.0 4.0 0.00 0.00 0.00 78 1017.7
20260903083106 45 78 2.0 4.0 0.00 0.00 0.00 78 1017.9
20260903081602 45 78 0.0 3.0 0.00 0.00 0.00 76 1017.9
20260903080105 46 0 0.0 3.0 0.00 0.00 0.00 78 1017.9
20260903074640 46 78 1.0 4.0 0.00 0.00 0.00 75 1018.0
20260903073116 47 0 1.0 4.0 0.00 0.00 0.00 74 1018.0
20260903071605 48 77 2.0 4.0 0.00 0.00 0.00 73 1018.0
20260903070113 49 74 0.0 0.0 0.00 0.00 0.00 71 1018.0
20260903064559 50 0 0.0 1.0 0.00 0.00 0.00 74 1018.0
20260903063106 51 0 0.0 4.0 0.00 0.00 0.00 74 1018.2
20260903061610 51 0 0.0 0.0 0.00 0.00 0.00 70 1018.2
20260903060103 52 0 0.0 1.0 0.00 0.00 0.00 70 1018.2
20260903054603 53 0 1.0 4.0 0.00 0.00 0.00 71 1018.2
20260903053057 53 0 1.0 3.0 0.00 0.00 0.00 71 1018.5
20260903051600 53 54 2.0 4.0 0.00 0.00 0.00 69 1018.4
20260903050100 55 0 0.0 0.0 0.00 0.00 0.00 67 1018.4
20260903044602 56 0 0.0 3.0 0.00 0.00 0.00 65 1018.5
20260903043101 57 52 2.0 4.0 0.00 0.00 0.00 61 1018.4
20260903041613 60 0 1.0 2.0 0.00 0.00 0.00 62 1018.3
20260903040059 62 0 0.0 1.0 0.00 0.00 0.00 60 1018.0
20260903034602 64 0 0.0 0.0 0.00 0.00 0.00 59 1017.8
20260903033059 65 275 0.0 4.0 0.00 0.00 0.00 63 1017.7
20260903031557 66 229 2.0 4.0 0.00 0.00 0.00 61 1017.6
20260903024558 69 0 0.0 1.0 0.00 0.00 0.00 55 1017.2
20260903023101 71 0 0.0 3.0 0.00 0.00 0.00 52 1016.9
20260903021558 73 287 1.0 4.0 0.00 0.00 0.00 48 1017.0
20260903020100 75 213 1.0 6.0 0.00 0.00 0.00 45 1017.0
20260903014624 78 246 4.0 7.0 0.00 0.00 0.00 40 1017.0
20260903013104 81 250 3.0 6.0 0.00 0.00 0.00 36 1016.9
20260903011619 82 243 3.0 8.0 0.00 0.00 0.00 32 1017.0
20260903010112 84 289 2.0 9.0 0.00 0.00 0.00 28 1016.9